Nashville, TN

8:12 AM CST on December 08, 2019 (GMT -0600)
Nashville International

Weather History for KBNA - May, 2019

Change the Weather History Date:

Saturday, May 18, 2019

  Actual Average Record
Temperature  
Mean Temperature 77 °F 68 °F  
Max Temperature 90 °F 79 °F 95 °F (1962)
Min Temperature 64 °F 57 °F 40 °F (1895)
Degree Days  
Heating Degree Days 0    
Month to date heating degree days 27  
Since 1 July heating degree days 3220  
Cooling Degree Days 12    
Month to date cooling degree days 84  
Year to date cooling degree days 143  
Growing Degree Days 27 (Base 50)    
Moisture  
Dew Point 62 °F    
Average Humidity 59    
Maximum Humidity 87    
Minimum Humidity 37    
Precipitation  
Precipitation 0.00 in 0.17 in 2.53 in (1930)
Month to date precipitation 1.51 3.39  
Year to date precipitation 29.39 19.19  
Sea Level Pressure  
Sea Level Pressure 29.93 in    
Wind  
Wind Speed 7 mph ()    
Max Wind Speed 21 mph    
Max Gust Speed 27 mph    
Visibility 10.0 miles    
Events      
T = Trace of Precipitation, MM = Missing Value Source: Averaged Metar Reports

Daily Weather History Graph

Daily Weather History Graph

Search for Another Location

Airport or City:

Astronomy

May. 18, 2019 Rise Set
Actual Time 5:38 AM CDT 7:48 PM CDT
Civil Twilight 5:09 AM CDT 8:17 PM CDT
Nautical Twilight 4:34 AM CDT 8:52 PM CDT
Astronomical Twilight 3:56 AM CDT 9:30 PM CDT
Moon 7:44 PM CDT (5/18) 5:42 AM CDT (5/18)
Length of Visible Light 15h 07m
Length of Day
14h 09m
Full, 100% of the Moon is Illuminated
May 18
Full
May 18
Full
May 26
Last Quarter
Jun 3
New
Jun 10
First Quarter

Hourly Weather History & Observations

Time (CDT) Temp. Heat Index Dew Point Humidity Pressure Visibility Wind Dir Wind Speed Gust Speed Precip Events Conditions
12:53 AM 69.1 °F - 62.1 °F 78% 29.95 in 10.0 mi South 5.8 mph - N/A   Partly Cloudy
1:53 AM 68.0 °F - 62.1 °F 81% 29.94 in 10.0 mi South 4.6 mph - N/A   Partly Cloudy
2:53 AM 66.9 °F - 62.1 °F 84% 29.94 in 10.0 mi South 4.6 mph - N/A   Partly Cloudy
3:53 AM 66.9 °F - 61.0 °F 81% 29.95 in 10.0 mi SSE 3.5 mph - N/A   Clear
4:53 AM 68.0 °F - 60.1 °F 76% 29.96 in 10.0 mi Calm Calm - N/A   Clear
5:53 AM 64.9 °F - 60.1 °F 84% 29.97 in 10.0 mi South 4.6 mph - N/A   Partly Cloudy
6:53 AM 69.1 °F - 62.1 °F 78% 29.98 in 9.0 mi Calm Calm - N/A   Partly Cloudy
7:53 AM 73.9 °F - 64.0 °F 71% 29.99 in 10.0 mi SSE 6.9 mph - N/A   Partly Cloudy
8:53 AM 80.1 °F 81.7 °F 64.0 °F 58% 30.00 in 10.0 mi SSW 8.1 mph - N/A   Clear
9:53 AM 82.9 °F 84.0 °F 63.0 °F 51% 30.00 in 10.0 mi South 8.1 mph - N/A   Clear
10:53 AM 84.9 °F 85.9 °F 63.0 °F 48% 29.99 in 10.0 mi South 11.5 mph - N/A   Partly Cloudy
11:53 AM 87.1 °F 87.8 °F 63.0 °F 44% 29.96 in 10.0 mi South 11.5 mph 21.9 mph N/A   Scattered Clouds
12:53 PM 88.0 °F 88.4 °F 62.1 °F 42% 29.94 in 10.0 mi South 15.0 mph 21.9 mph N/A   Mostly Cloudy
1:53 PM 89.1 °F 89.3 °F 62.1 °F 40% 29.93 in 10.0 mi SSW 16.1 mph 24.2 mph N/A   Mostly Cloudy
2:53 PM 87.1 °F 86.7 °F 60.1 °F 40% 29.91 in 10.0 mi SSW 16.1 mph - N/A   Scattered Clouds
3:53 PM 90.0 °F 89.7 °F 60.1 °F 37% 29.90 in 10.0 mi South 19.6 mph 24.2 mph N/A   Mostly Cloudy
4:53 PM 88.0 °F 87.9 °F 61.0 °F 40% 29.89 in 10.0 mi South 12.7 mph - N/A   Scattered Clouds
5:53 PM 86.0 °F 85.4 °F 59.0 °F 40% 29.88 in 10.0 mi South 13.8 mph - N/A   Scattered Clouds
6:53 PM 84.9 °F 84.8 °F 60.1 °F 43% 29.87 in 10.0 mi South 12.7 mph - N/A   Scattered Clouds
7:53 PM 80.1 °F 80.9 °F 60.1 °F 50% 29.88 in 10.0 mi South 9.2 mph - N/A   Scattered Clouds
8:53 PM 77.0 °F - 61.0 °F 58% 29.88 in 10.0 mi South 3.5 mph - N/A   Partly Cloudy
9:53 PM 73.9 °F - 61.0 °F 64% 29.89 in 10.0 mi South 4.6 mph - N/A   Partly Cloudy
10:53 PM 72.0 °F - 62.1 °F 71% 29.90 in 10.0 mi South 8.1 mph - N/A   Scattered Clouds
11:53 PM 73.0 °F - 62.1 °F 68% 29.88 in 10.0 mi South 10.4 mph - N/A   Mostly Cloudy